Погода в Лас-Вегасе

США     36°14′01″N   115°14′29″W
темп.,
°C
ветер,
м/с
пор.,
м/с
влажн.,
%
обл.,
%
осадки,
мм/ч
давл.,
гПа
погр.,
м
4 июля, пн
пн423:00+24юз22160 0.0 100528
02:00+22юв02220 0.0 100731
05:00+20всв22250 0.0 100827
08:00+25вюв33200 0.0 1010474
11:00+31ююв69110 0.0 10092160
14:00+36ю5880 0.0 10063255
17:00+35юз8880 0.0 10042988
20:00+30ююз45120 0.0 1005133
5 июля, вт
вт523:00+26ююз33160 0.0 100763
02:00+23ссв13190 0.0 100722
05:00+21всв22230 0.0 100931
08:00+26вюв22200 0.0 1011377
11:00+31юв46130 0.0 10092147
14:00+35ю5690 0.0 10063078
17:00+36ююз7790 0.0 10043402
20:00+31юз67150 0.0 1005190
6 июля, ср
ср623:00+27ююз33190 0.0 100773
02:00+24св12230 0.0 100827
05:00+22св22280 0.0 100926
08:00+27вюв22210 0.0 1010352
11:00+32вюв46170 0.0 10101832
14:00+37ююв7890 0.0 10073604
17:00+37ю7890 0.0 10053902
20:00+32зюз56150 0.0 1006198
7 июля, чт
чт723:00+28ю34190 0.0 100863
02:00+25ссв12220 0.0 101031
05:00+22св12240 0.0 101125
08:00+28вюв22180 0.0 1013336
11:00+33юв47150 0.0 10121723
14:00+38ю99100 0.0 10093494
17:00+38ю7790 0.0 10073487
20:00+33юз68110 0.0 1008219
8 июля, пт
пт823:00+27ююз23130 0.0 101039
02:00+25с22170 0.0 101119
05:00+22ссв12230 0.0 101324
08:00+28вюв22170 0.0 1014293
11:00+33юв45130 0.0 10141204
14:00+38ююв3690 0.0 10112813
17:00+40юз6680 0.0 10083278
20:00+33юз55100 0.0 1009110